Weather History for KICR - October, 2011

Change the Weather History Date:

Sunday, October 9, 2011

  Actual Average Record
Temperature  
Mean Temperature 52 °F 54 °F  
Max Temperature 54 °F 66 °F 70 °F (2013)
Min Temperature 50 °F 41 °F 32 °F (2012)
Degree Days  
Heating Degree Days 13 12  
Month to date heating degree days 25 95  
Since 1 July heating degree days 159 237  
Cooling Degree Days 0 1  
Month to date cooling degree days 52 9  
Year to date cooling degree days 1055 915  
Growing Degree Days 2 (Base 50)    
Moisture  
Dew Point 50 °F    
Average Humidity 93    
Maximum Humidity 96    
Minimum Humidity 89    
Precipitation  
Precipitation 1.29 in 0.05 in 1.29 in (2011)
Month to date precipitation 2.55 0.53  
Year to date precipitation 21.39 19.52  
Sea Level Pressure  
Sea Level Pressure 30.07 in    
Wind  
Wind Speed 8 mph (NW)    
Max Wind Speed 14 mph    
Max Gust Speed 17 mph    
Visibility 5 miles    
Events Rain    
T = Trace of Precipitation, MM = Missing Value Source: NWS Daily Summary

Daily Weather History Graph

Daily Weather History Graph

Search for Another Location

Airport or City:

Trip Planner

Search our weather history database for the weather conditions in past years. The results will help you decide how hot, cold, wet, or windy it might be!

Date:

Astronomy

Oct. 09, 2011 Rise Set
Actual Time 7:45 AM CDT 7:06 PM CDT
Civil Twilight 7:17 AM CDT 7:35 PM CDT
Nautical Twilight 6:44 AM CDT 8:08 PM CDT
Astronomical Twilight 6:10 AM CDT 8:41 PM CDT
Moon 5:46 PM CDT (10/9) 5:29 AM CDT (10/9)
Length of Visible Light 12h 18m
Length of Day
11h 20m
Waxing Gibbous, 95% of the Moon is Illuminated
Oct 9
Waxing Gibbous
Oct 11
Full
Oct 19
Last Quarter
Oct 26
New
Nov 2
First Quarter

Hourly Weather History & Observations

Time (CDT) Temp. Dew Point Humidity Pressure Visibility Wind Dir Wind Speed Gust Speed Precip Events Conditions
12:53 AM 54.0 °F 51.1 °F 90% 30.13 in 10.0 mi North 6.9 mph - 0.05 in   Overcast
1:51 AM 53.6 °F 51.8 °F 94% 30.12 in 10.0 mi North 10.4 mph - 0.00 in   Overcast
1:53 AM 53.1 °F 51.1 °F 93% 30.12 in 10.0 mi North 9.2 mph - 0.00 in   Overcast
2:04 AM 53.6 °F 51.8 °F 94% 30.12 in 10.0 mi North 8.1 mph - N/A   Overcast
2:30 AM 53.6 °F 51.8 °F 94% 30.14 in 10.0 mi North 5.8 mph - N/A   Overcast
2:53 AM 53.1 °F 51.1 °F 93% 30.14 in 10.0 mi NNE 5.8 mph - N/A   Overcast
3:09 AM 53.6 °F 51.8 °F 94% 30.13 in 10.0 mi NNE 6.9 mph - N/A   Overcast
3:53 AM 53.1 °F 51.1 °F 93% 30.13 in 10.0 mi NNE 5.8 mph - N/A   Overcast
4:09 AM 53.6 °F 51.8 °F 94% 30.12 in 6.0 mi NNW 4.6 mph - 0.00 in Rain Light Rain
4:13 AM 53.6 °F 51.8 °F 94% 30.13 in 7.0 mi NNW 3.5 mph - 0.00 in Rain Light Rain
4:16 AM 53.6 °F 51.8 °F 94% 30.13 in 8.0 mi NNW 4.6 mph - 0.00 in   Overcast
4:25 AM 53.6 °F 51.8 °F 94% 30.13 in 7.0 mi NNW 4.6 mph - 0.00 in   Overcast
4:50 AM 53.6 °F 51.8 °F 94% 30.12 in 6.0 mi North 9.2 mph - 0.00 in   Overcast
4:53 AM 53.1 °F 51.1 °F 93% 30.13 in 7.0 mi North 5.8 mph - 0.00 in   Overcast
5:53 AM 52.0 °F 50.0 °F 93% 30.13 in 4.0 mi North 8.1 mph - 0.01 in Rain Light Rain
6:37 AM 51.8 °F 51.8 °F 100% 30.14 in 2.0 mi NW 8.1 mph - 0.03 in Rain Heavy Rain
6:46 AM 51.8 °F 50.0 °F 94% 30.14 in 1.5 mi NW 6.9 mph - 0.08 in Rain Heavy Rain
6:53 AM 52.0 °F 50.0 °F 93% 30.14 in 2.0 mi NNW 6.9 mph - 0.09 in Rain Rain
7:10 AM 51.8 °F 50.0 °F 94% 30.13 in 2.5 mi NNW 8.1 mph - 0.04 in Rain Rain
7:16 AM 51.8 °F 50.0 °F 94% 30.12 in 1.8 mi NNW 9.2 mph - 0.05 in Rain Rain
7:38 AM 51.8 °F 50.0 °F 94% 30.13 in 2.5 mi NW 9.2 mph - 0.06 in Rain Light Rain
8:10 AM 51.8 °F 50.0 °F 94% 30.12 in 2.0 mi NNW 9.2 mph - 0.01 in Rain Rain
8:18 AM 51.8 °F 48.2 °F 88% 30.12 in 1.8 mi NNW 8.1 mph - 0.02 in Rain Light Rain
8:32 AM 51.8 °F 50.0 °F 94% 30.12 in 2.0 mi NNW 6.9 mph - 0.03 in Rain Rain
8:41 AM 51.8 °F 50.0 °F 94% 30.12 in 1.8 mi NNW 5.8 mph - 0.04 in Rain Light Rain
8:53 AM 52.0 °F 50.0 °F 93% 30.13 in 2.0 mi NNW 4.6 mph - 0.05 in Rain Rain
9:06 AM 51.8 °F 48.2 °F 88% 30.12 in 1.5 mi NW 5.8 mph - 0.03 in Rain Rain
9:39 AM 51.8 °F 48.2 °F 88% 30.12 in 2.5 mi NW 9.2 mph - 0.10 in Rain Light Rain
9:50 AM 51.8 °F 48.2 °F 88% 30.12 in 2.0 mi NNW 8.1 mph - 0.12 in Rain Rain
9:53 AM 51.1 °F 48.9 °F 92% 30.13 in 2.5 mi NNW 6.9 mph - 0.12 in Rain Light Rain
10:01 AM 51.8 °F 48.2 °F 88% 30.12 in 3.0 mi NW 6.9 mph - 0.02 in Rain Rain
10:53 AM 51.1 °F 48.9 °F 92% 30.13 in 5.0 mi WNW 9.2 mph - 0.09 in Rain Rain
11:37 AM 51.8 °F 48.2 °F 88% 30.11 in 2.0 mi WNW 8.1 mph - 0.05 in Rain Rain
11:47 AM 51.8 °F 48.2 °F 88% 30.11 in 3.0 mi WNW 6.9 mph - 0.05 in Rain Light Rain
11:53 AM 51.1 °F 48.9 °F 92% 30.12 in 4.0 mi WNW 6.9 mph - 0.06 in Rain Light Rain
12:10 PM 51.8 °F 48.2 °F 88% 30.11 in 2.5 mi NW 6.9 mph - 0.01 in Rain Rain
12:26 PM 51.8 °F 50.0 °F 94% 30.10 in 4.0 mi NW 6.9 mph - 0.03 in Rain Light Rain
12:53 PM 52.0 °F 50.0 °F 93% 30.10 in 3.0 mi NW 9.2 mph - 0.03 in Rain Light Rain
1:01 PM 53.6 °F 50.0 °F 88% 30.09 in 2.5 mi NW 9.2 mph - 0.01 in Rain Light Rain
1:20 PM 53.6 °F 50.0 °F 88% 30.08 in 5.0 mi NW 5.8 mph - 0.02 in Rain Light Rain
1:42 PM 53.6 °F 51.8 °F 94% 30.06 in 2.5 mi NW 8.1 mph - 0.02 in Rain Light Rain
1:53 PM 53.1 °F 51.1 °F 93% 30.07 in 4.0 mi NW 8.1 mph - 0.03 in Rain Light Rain
2:40 PM 53.6 °F 51.8 °F 94% 30.05 in 2.0 mi WNW 8.1 mph - 0.05 in Rain Heavy Rain
2:48 PM 53.6 °F 51.8 °F 94% 30.05 in 1.8 mi WNW 9.2 mph - 0.09 in Rain Heavy Rain
2:49 PM 53.1 °F 51.1 °F 93% 30.05 in 1.8 mi WNW 9.2 mph - 0.09 in Rain Heavy Rain
2:57 PM 53.6 °F 51.8 °F 94% 30.03 in 2.5 mi NW 10.4 mph - 0.03 in Rain Heavy Rain
3:07 PM 53.6 °F 51.8 °F 94% 30.02 in 3.0 mi NW 10.4 mph - 0.06 in Rain Rain
3:16 PM 53.6 °F 51.8 °F 94% 30.03 in 2.0 mi West 11.5 mph - 0.10 in Rain Rain
3:23 PM 53.6 °F 51.8 °F 94% 30.02 in 1.5 mi NW 10.4 mph - 0.13 in Rain Rain
3:27 PM 53.6 °F 51.8 °F 94% 30.02 in 2.5 mi WNW 9.2 mph - 0.14 in Rain Rain
3:33 PM 53.6 °F 51.8 °F 94% 30.02 in 1.8 mi NW 9.2 mph - 0.18 in Rain Heavy Rain
3:43 PM 53.6 °F 51.8 °F 94% 30.01 in 2.5 mi WNW 10.4 mph - 0.20 in Rain Rain
3:47 PM 53.6 °F 51.8 °F 94% 30.02 in 3.0 mi WNW 6.9 mph - 0.21 in Rain Rain
3:51 PM 53.6 °F 51.8 °F 94% 30.02 in 3.0 mi WNW 6.9 mph - 0.22 in Rain Rain
3:53 PM 53.1 °F 51.1 °F 93% 30.02 in 2.5 mi WNW 8.1 mph - 0.22 in Rain Rain
4:08 PM 53.6 °F 51.8 °F 94% 30.02 in 1.8 mi WNW 8.1 mph - 0.07 in Rain Heavy Rain
4:18 PM 53.6 °F 51.8 °F 94% 30.01 in 2.5 mi WNW 8.1 mph - 0.09 in Rain Rain
4:27 PM 53.6 °F 51.8 °F 94% 30.02 in 5.0 mi WNW 9.2 mph - 0.10 in Rain Rain
4:53 PM 53.1 °F 51.1 °F 93% 30.03 in 6.0 mi WNW 10.4 mph - 0.14 in Rain Light Rain
5:53 PM 52.0 °F 50.0 °F 93% 30.01 in 4.0 mi WNW 9.2 mph - 0.07 in Rain Rain
6:39 PM 51.8 °F 50.0 °F 94% 29.99 in 5.0 mi NW 6.9 mph - 0.05 in Rain Light Rain
6:53 PM 52.0 °F 50.0 °F 93% 30.00 in 4.0 mi West 4.6 mph - 0.07 in Rain Rain
7:43 PM 51.8 °F 50.0 °F 94% 30.00 in 4.0 mi WNW 8.1 mph - 0.08 in Rain Rain
7:53 PM 52.0 °F 50.0 °F 93% 30.01 in 5.0 mi WNW 8.1 mph - 0.09 in Rain Light Rain
8:05 PM 51.8 °F 50.0 °F 94% 29.99 in 5.0 mi WNW 10.4 mph - 0.01 in Rain Light Rain
8:17 PM 51.8 °F 50.0 °F 94% 29.99 in 8.0 mi WNW 8.1 mph - 0.02 in Rain Light Rain
8:28 PM 51.8 °F 50.0 °F 94% 29.99 in 9.0 mi WNW 8.1 mph - 0.03 in Rain Light Rain
8:53 PM 52.0 °F 50.0 °F 93% 30.01 in 10.0 mi West 9.2 mph - 0.04 in Rain Light Rain
9:53 PM 51.1 °F 48.9 °F 92% 30.00 in 10.0 mi West 6.9 mph - 0.02 in Rain Light Rain
10:06 PM 51.8 °F 48.2 °F 88% 30.00 in 10.0 mi West 8.1 mph - 0.00 in   Overcast
10:40 PM 51.8 °F 48.2 °F 88% 29.98 in 10.0 mi WNW 6.9 mph - 0.00 in   Overcast
10:50 PM 51.8 °F 48.2 °F 88% 29.98 in 10.0 mi WNW 6.9 mph - 0.00 in   Overcast
10:53 PM 51.1 °F 48.0 °F 89% 29.99 in 10.0 mi WNW 6.9 mph - 0.00 in   Overcast
11:16 PM 51.8 °F 48.2 °F 88% 29.98 in 10.0 mi West 8.1 mph - N/A   Overcast
11:25 PM 50.0 °F 48.2 °F 94% 29.98 in 10.0 mi West 6.9 mph - N/A   Overcast
11:36 PM 50.0 °F 48.2 °F 94% 29.99 in 10.0 mi West 6.9 mph - N/A   Overcast
11:53 PM 50.0 °F 48.0 °F 93% 30.01 in 10.0 mi WSW 6.9 mph - N/A   Overcast